| time (UTC) | temp F | wind direction | speed MPH | gust MPH | rain 1hr in | rain 24hr in | rain mn in | humidity % | barometer mb |
| 20260507095220 | 53 | 123 | 0.0 | 0.0 | 0.00 | 0.00 | 0.00 | 96 | 997.4 |
| 20260507094717 | 53 | 123 | 0.0 | 0.0 | 0.00 | 0.00 | 0.00 | 96 | 997.4 |
| 20260507094215 | 53 | 109 | 0.0 | 0.0 | 0.00 | 0.00 | 0.00 | 96 | 997.6 |
| 20260507093711 | 53 | 129 | 0.0 | 0.0 | 0.00 | 0.00 | 0.00 | 96 | 997.4 |
| 20260507093210 | 53 | 125 | 0.0 | 0.0 | 0.00 | 0.00 | 0.00 | 96 | 997.5 |
| 20260507092707 | 53 | 164 | 0.0 | 0.0 | 0.00 | 0.00 | 0.00 | 96 | 997.7 |
| 20260507092203 | 53 | 164 | 0.0 | 0.0 | 0.00 | 0.00 | 0.00 | 96 | 997.6 |
| 20260507091659 | 53 | 164 | 0.0 | 0.0 | 0.00 | 0.00 | 0.00 | 96 | 997.7 |
| 20260507091156 | 53 | 163 | 0.0 | 0.0 | 0.00 | 0.00 | 0.00 | 95 | 997.9 |
| 20260507090651 | 53 | 163 | 0.0 | 0.0 | 0.00 | 0.00 | 0.00 | 95 | 997.8 |
| 20260507090149 | 53 | 163 | 0.0 | 0.0 | 0.00 | 0.00 | 0.00 | 95 | 997.8 |
| 20260507085646 | 54 | 163 | 0.0 | 0.0 | 0.00 | 0.00 | 0.00 | 95 | 997.8 |
| 20260507085143 | 54 | 163 | 0.0 | 0.0 | 0.00 | 0.00 | 0.00 | 95 | 997.8 |
| 20260507084640 | 54 | 163 | 0.0 | 0.0 | 0.00 | 0.00 | 0.00 | 95 | 998.1 |
| 20260507084136 | 54 | 163 | 0.0 | 0.0 | 0.00 | 0.00 | 0.00 | 95 | 998.0 |
| 20260507083633 | 54 | 163 | 0.0 | 0.0 | 0.00 | 0.00 | 0.00 | 95 | 998.1 |
| 20260507083130 | 55 | 163 | 0.0 | 0.0 | 0.00 | 0.00 | 0.00 | 95 | 998.0 |
| 20260507082625 | 55 | 163 | 0.0 | 0.0 | 0.00 | 0.00 | 0.00 | 94 | 998.2 |
| 20260507082122 | 55 | 163 | 0.0 | 0.0 | 0.00 | 0.00 | 0.00 | 94 | 998.1 |
| 20260507081619 | 55 | 163 | 0.0 | 0.0 | 0.00 | 0.00 | 0.00 | 94 | 998.3 |
| 20260507081115 | 55 | 163 | 0.0 | 0.0 | 0.00 | 0.00 | 0.00 | 94 | 998.3 |
| 20260507080612 | 55 | 163 | 0.0 | 0.0 | 0.00 | 0.00 | 0.00 | 94 | 998.2 |
| 20260507080108 | 55 | 163 | 0.0 | 0.0 | 0.00 | 0.00 | 0.00 | 94 | 998.4 |
| 20260507075603 | 55 | 163 | 0.0 | 0.0 | 0.00 | 0.00 | 0.00 | 93 | 998.2 |
| 20260507075100 | 55 | 163 | 0.0 | 0.0 | 0.00 | 0.00 | 0.00 | 93 | 998.3 |
| 20260507074557 | 55 | 163 | 0.0 | 0.0 | 0.00 | 0.00 | 0.00 | 92 | 998.2 |
| 20260507074055 | 55 | 163 | 0.0 | 0.0 | 0.00 | 0.00 | 0.00 | 92 | 998.4 |
| 20260507073550 | 55 | 163 | 0.0 | 0.0 | 0.00 | 0.00 | 0.00 | 92 | 998.2 |
| 20260507073047 | 55 | 164 | 0.0 | 0.0 | 0.00 | 0.00 | 0.00 | 92 | 998.2 |
| 20260507072545 | 55 | 163 | 0.0 | 0.0 | 0.00 | 0.00 | 0.00 | 91 | 998.3 |
| 20260507072042 | 55 | 164 | 0.0 | 0.0 | 0.00 | 0.00 | 0.00 | 91 | 998.1 |
| 20260507071539 | 55 | 163 | 0.0 | 0.0 | 0.00 | 0.00 | 0.00 | 90 | 998.4 |
| 20260507071036 | 55 | 163 | 0.0 | 0.0 | 0.00 | 0.00 | 0.00 | 90 | 998.3 |
| 20260507070533 | 55 | 163 | 0.0 | 0.0 | 0.00 | 0.00 | 0.00 | 90 | 998.5 |
| 20260507070030 | 56 | 163 | 0.0 | 0.0 | 0.00 | 0.00 | 0.00 | 90 | 998.5 |
| 20260507065526 | 56 | 163 | 0.0 | 0.0 | 0.00 | 0.00 | 0.00 | 90 | 998.6 |
| 20260507065023 | 56 | 163 | 0.0 | 0.0 | 0.00 | 0.00 | 0.00 | 90 | 998.4 |
| 20260507064521 | 56 | 163 | 0.0 | 0.0 | 0.00 | 0.00 | 0.00 | 89 | 998.4 |
| 20260507064020 | 56 | 163 | 0.0 | 0.0 | 0.00 | 0.00 | 0.00 | 89 | 998.7 |
| 20260507063516 | 56 | 163 | 0.0 | 0.0 | 0.00 | 0.00 | 0.00 | 89 | 998.8 |
| 20260507063014 | 57 | 163 | 0.0 | 0.0 | 0.00 | 0.00 | 0.00 | 89 | 998.9 |
| 20260507062510 | 56 | 160 | 0.0 | 0.0 | 0.00 | 0.00 | 0.00 | 89 | 998.9 |
| 20260507062008 | 56 | 159 | 0.0 | 0.0 | 0.00 | 0.00 | 0.00 | 89 | 998.5 |
| 20260507061505 | 57 | 159 | 0.0 | 0.0 | 0.00 | 0.00 | 0.00 | 88 | 998.7 |
| 20260507061004 | 57 | 159 | 0.0 | 0.0 | 0.00 | 0.00 | 0.00 | 87 | 998.8 |
| 20260507060501 | 57 | 159 | 0.0 | 0.0 | 0.00 | 0.00 | 0.00 | 87 | 998.8 |
| 20260507055957 | 57 | 159 | 0.0 | 0.0 | 0.00 | 0.00 | 0.00 | 87 | 998.7 |
| 20260507055452 | 57 | 159 | 0.0 | 0.0 | 0.00 | 0.00 | 0.00 | 87 | 998.5 |
| 20260507054949 | 57 | 159 | 0.0 | 0.0 | 0.00 | 0.00 | 0.00 | 87 | 998.5 |
| 20260507054445 | 57 | 160 | 0.0 | 0.0 | 0.00 | 0.00 | 0.00 | 86 | 998.5 |
| 20260507053942 | 57 | 160 | 0.0 | 0.0 | 0.00 | 0.00 | 0.00 | 87 | 998.4 |
| 20260507053440 | 57 | 160 | 0.0 | 0.0 | 0.00 | 0.00 | 0.00 | 87 | 998.4 |
| 20260507052938 | 57 | 160 | 0.0 | 0.0 | 0.00 | 0.00 | 0.00 | 86 | 998.7 |
| 20260507052436 | 58 | 160 | 0.0 | 0.0 | 0.00 | 0.00 | 0.00 | 86 | 998.4 |
| 20260507051933 | 58 | 158 | 0.0 | 0.0 | 0.00 | 0.00 | 0.00 | 86 | 998.5 |
| 20260507051430 | 58 | 158 | 0.0 | 0.0 | 0.00 | 0.00 | 0.00 | 85 | 998.7 |
| 20260507050927 | 58 | 158 | 0.0 | 0.0 | 0.00 | 0.00 | 0.00 | 86 | 998.6 |
| 20260507050423 | 58 | 150 | 0.0 | 0.0 | 0.00 | 0.00 | 0.00 | 86 | 998.4 |
| 20260507045920 | 58 | 147 | 0.0 | 0.0 | 0.00 | 0.00 | 0.00 | 85 | 998.4 |
| 20260507045417 | 59 | 163 | 0.0 | 0.0 | 0.00 | 0.00 | 0.00 | 84 | 998.6 |
| 20260507044914 | 59 | 172 | 0.0 | 0.0 | 0.00 | 0.00 | 0.00 | 84 | 998.6 |
| 20260507044411 | 59 | 141 | 0.0 | 0.0 | 0.00 | 0.00 | 0.00 | 85 | 998.5 |
| 20260507043907 | 59 | 169 | 0.0 | 0.0 | 0.00 | 0.00 | 0.00 | 85 | 998.7 |
| 20260507043403 | 59 | 130 | 0.0 | 1.0 | 0.00 | 0.00 | 0.00 | 84 | 998.3 |
| 20260507042859 | 59 | 185 | 0.0 | 0.0 | 0.00 | 0.00 | 0.00 | 84 | 998.3 |
| 20260507042356 | 59 | 172 | 0.0 | 0.0 | 0.00 | 0.00 | 0.00 | 84 | 998.5 |
| 20260507041852 | 60 | 171 | 0.0 | 1.0 | 0.00 | 0.00 | 0.00 | 83 | 998.4 |
| 20260507041349 | 60 | 221 | 1.0 | 1.0 | 0.00 | 0.00 | 0.00 | 83 | 998.2 |
| 20260507040846 | 60 | 224 | 0.0 | 1.0 | 0.00 | 0.00 | 0.00 | 82 | 998.2 |
| 20260507040342 | 60 | 195 | 1.0 | 1.0 | 0.00 | 0.00 | 0.00 | 82 | 998.0 |
| 20260507035838 | 60 | 200 | 0.0 | 1.0 | 0.00 | 0.00 | 0.00 | 81 | 998.1 |
| 20260507035334 | 61 | 207 | 1.0 | 1.0 | 0.00 | 0.00 | 0.00 | 80 | 998.1 |
| 20260507034832 | 61 | 185 | 1.0 | 2.0 | 0.00 | 0.00 | 0.00 | 80 | 998.2 |
| 20260507034328 | 61 | 237 | 1.0 | 2.0 | 0.00 | 0.00 | 0.00 | 80 | 998.2 |
| 20260507033826 | 61 | 251 | 3.0 | 3.0 | 0.00 | 0.00 | 0.00 | 80 | 998.0 |
| 20260507033324 | 61 | 179 | 0.0 | 0.0 | 0.00 | 0.00 | 0.00 | 79 | 997.9 |
| 20260507032821 | 61 | 219 | 2.0 | 3.0 | 0.00 | 0.00 | 0.00 | 79 | 998.1 |
| 20260507032317 | 61 | 248 | 1.0 | 1.0 | 0.00 | 0.00 | 0.00 | 79 | 997.8 |
| 20260507031814 | 61 | 252 | 1.0 | 1.0 | 0.00 | 0.00 | 0.00 | 79 | 997.8 |
| 20260507031311 | 62 | 191 | 0.0 | 1.0 | 0.00 | 0.00 | 0.00 | 79 | 997.7 |
| 20260507030807 | 62 | 171 | 2.0 | 3.0 | 0.00 | 0.00 | 0.00 | 79 | 997.6 |
| 20260507030305 | 62 | 207 | 1.0 | 1.0 | 0.00 | 0.00 | 0.00 | 78 | 997.8 |
| 20260507025801 | 62 | 261 | 1.0 | 1.0 | 0.00 | 0.00 | 0.00 | 77 | 997.7 |
| 20260507025259 | 62 | 204 | 0.0 | 1.0 | 0.00 | 0.00 | 0.00 | 77 | 997.7 |
| 20260507024757 | 62 | 170 | 3.0 | 5.0 | 0.00 | 0.00 | 0.00 | 77 | 997.5 |
| 20260507024253 | 63 | 221 | 1.0 | 1.0 | 0.00 | 0.00 | 0.00 | 76 | 997.6 |
| 20260507023749 | 63 | 168 | 1.0 | 1.0 | 0.00 | 0.00 | 0.00 | 75 | 997.5 |
| 20260507023246 | 63 | 245 | 1.0 | 2.0 | 0.00 | 0.00 | 0.00 | 74 | 997.5 |
| 20260507022743 | 64 | 227 | 1.0 | 2.0 | 0.00 | 0.00 | 0.00 | 74 | 997.5 |
| 20260507022239 | 64 | 286 | 3.0 | 5.0 | 0.00 | 0.00 | 0.00 | 74 | 997.5 |
| 20260507021736 | 64 | 286 | 5.0 | 7.0 | 0.00 | 0.00 | 0.00 | 72 | 997.5 |
| 20260507021231 | 65 | 190 | 1.0 | 1.0 | 0.00 | 0.00 | 0.00 | 71 | 997.3 |
| 20260507020730 | 66 | 328 | 2.0 | 2.0 | 0.00 | 0.00 | 0.00 | 69 | 997.2 |
| 20260507020226 | 66 | 281 | 2.0 | 2.0 | 0.00 | 0.00 | 0.00 | 69 | 997.3 |
| 20260507015724 | 66 | 324 | 4.0 | 5.0 | 0.00 | 0.00 | 0.00 | 67 | 997.3 |
| 20260507015221 | 67 | 254 | 3.0 | 3.0 | 0.00 | 0.00 | 0.00 | 66 | 997.3 |
| 20260507014717 | 67 | 204 | 1.0 | 2.0 | 0.00 | 0.00 | 0.00 | 66 | 997.2 |
| 20260507014214 | 67 | 252 | 1.0 | 2.0 | 0.00 | 0.00 | 0.00 | 66 | 997.2 |
| 20260507013710 | 68 | 246 | 2.0 | 2.0 | 0.00 | 0.00 | 0.00 | 64 | 997.3 |
| 20260507013208 | 68 | 179 | 0.0 | 1.0 | 0.00 | 0.00 | 0.00 | 64 | 997.1 |
| 20260507012705 | 68 | 156 | 1.0 | 2.0 | 0.00 | 0.00 | 0.00 | 63 | 997.2 |
| 20260507012200 | 69 | 280 | 3.0 | 5.0 | 0.00 | 0.00 | 0.00 | 62 | 997.1 |
| 20260507011659 | 69 | 204 | 3.0 | 5.0 | 0.00 | 0.00 | 0.00 | 62 | 997.1 |
| 20260507011155 | 69 | 253 | 2.0 | 2.0 | 0.00 | 0.00 | 0.00 | 61 | 996.9 |
| 20260507010654 | 69 | 214 | 2.0 | 2.0 | 0.00 | 0.00 | 0.00 | 60 | 997.3 |
| 20260507010150 | 69 | 260 | 4.0 | 6.0 | 0.00 | 0.00 | 0.00 | 59 | 997.1 |
| 20260507005648 | 69 | 17 | 3.0 | 5.0 | 0.00 | 0.00 | 0.00 | 60 | 997.1 |
| 20260507005144 | 70 | 271 | 3.0 | 6.0 | 0.00 | 0.00 | 0.00 | 60 | 997.1 |
| 20260507004641 | 69 | 141 | 2.0 | 3.0 | 0.00 | 0.00 | 0.00 | 61 | 997.0 |
| 20260507004139 | 70 | 341 | 3.0 | 3.0 | 0.00 | 0.00 | 0.00 | 60 | 997.1 |
| 20260507003635 | 70 | 245 | 2.0 | 3.0 | 0.00 | 0.00 | 0.00 | 59 | 997.1 |
| 20260507003130 | 70 | 265 | 3.0 | 5.0 | 0.00 | 0.00 | 0.00 | 58 | 996.9 |
| 20260507002627 | 70 | 250 | 3.0 | 5.0 | 0.00 | 0.00 | 0.00 | 58 | 997.1 |
| 20260507002122 | 70 | 254 | 3.0 | 5.0 | 0.00 | 0.00 | 0.00 | 59 | 996.9 |
| 20260507001620 | 71 | 259 | 3.0 | 5.0 | 0.00 | 0.00 | 0.00 | 59 | 997.0 |
| 20260507001117 | 71 | 204 | 3.0 | 5.0 | 0.00 | 0.00 | 0.00 | 58 | 996.8 |
| 20260507000613 | 70 | 221 | 2.0 | 2.0 | 0.00 | 0.00 | 0.00 | 58 | 996.8 |
| 20260507000113 | 70 | 241 | 5.0 | 7.0 | 0.00 | 0.00 | 0.00 | 59 | 996.7 |
| 20260506235611 | 71 | 234 | 3.0 | 5.0 | 0.00 | 0.00 | 0.00 | 58 | 996.8 |
| 20260506235111 | 71 | 176 | 0.0 | 1.0 | 0.00 | 0.00 | 0.00 | 59 | 996.7 |
| 20260506234609 | 70 | 277 | 2.0 | 2.0 | 0.00 | 0.00 | 0.00 | 59 | 996.7 |
| 20260506234106 | 70 | 206 | 4.0 | 6.0 | 0.00 | 0.00 | 0.00 | 58 | 996.8 |
| 20260506233603 | 71 | 224 | 4.0 | 5.0 | 0.00 | 0.00 | 0.00 | 59 | 996.7 |
| 20260506233100 | 71 | 254 | 3.0 | 3.0 | 0.00 | 0.00 | 0.00 | 60 | 996.7 |
| 20260506232556 | 71 | 212 | 4.0 | 6.0 | 0.00 | 0.00 | 0.00 | 59 | 996.6 |
| 20260506232051 | 71 | 207 | 3.0 | 3.0 | 0.00 | 0.00 | 0.00 | 59 | 996.8 |
| 20260506231549 | 71 | 57 | 3.0 | 3.0 | 0.00 | 0.00 | 0.00 | 59 | 996.6 |
| 20260506231047 | 71 | 197 | 4.0 | 5.0 | 0.00 | 0.00 | 0.00 | 58 | 996.7 |
| 20260506230543 | 72 | 287 | 4.0 | 5.0 | 0.00 | 0.00 | 0.00 | 59 | 996.8 |
| 20260506230041 | 72 | 277 | 4.0 | 6.0 | 0.00 | 0.00 | 0.00 | 58 | 996.7 |
| 20260506225537 | 72 | 246 | 4.0 | 6.0 | 0.00 | 0.00 | 0.00 | 57 | 996.8 |
| 20260506225033 | 72 | 302 | 3.0 | 5.0 | 0.00 | 0.00 | 0.00 | 58 | 996.6 |
| 20260506224530 | 71 | 166 | 5.0 | 7.0 | 0.00 | 0.00 | 0.00 | 59 | 996.8 |
| 20260506224027 | 72 | 222 | 3.0 | 3.0 | 0.00 | 0.00 | 0.00 | 58 | 996.7 |
| 20260506223523 | 71 | 255 | 2.0 | 5.0 | 0.00 | 0.00 | 0.00 | 59 | 996.8 |
| 20260506223020 | 73 | 237 | 2.0 | 5.0 | 0.00 | 0.00 | 0.00 | 57 | 996.9 |
| 20260506222516 | 72 | 252 | 5.0 | 6.0 | 0.00 | 0.00 | 0.00 | 58 | 997.0 |
| 20260506222013 | 71 | 294 | 5.0 | 8.0 | 0.00 | 0.00 | 0.00 | 58 | 997.0 |
| 20260506221510 | 72 | 213 | 3.0 | 3.0 | 0.00 | 0.00 | 0.00 | 57 | 997.1 |
| 20260506221008 | 72 | 194 | 3.0 | 5.0 | 0.00 | 0.00 | 0.00 | 58 | 997.1 |
| 20260506220509 | 71 | 256 | 4.0 | 6.0 | 0.00 | 0.00 | 0.00 | 58 | 996.8 |
| 20260506220005 | 72 | 190 | 1.0 | 2.0 | 0.00 | 0.00 | 0.00 | 59 | 997.0 |
| 20260506215502 | 72 | 254 | 4.0 | 6.0 | 0.00 | 0.00 | 0.00 | 56 | 997.0 |
| 20260506214957 | 71 | 277 | 2.0 | 3.0 | 0.00 | 0.00 | 0.00 | 58 | 997.1 |
| 20260506214454 | 71 | 218 | 4.0 | 6.0 | 0.00 | 0.00 | 0.00 | 59 | 997.1 |
| 20260506213952 | 72 | 333 | 2.0 | 3.0 | 0.00 | 0.00 | 0.00 | 58 | 997.2 |
| 20260506213450 | 72 | 258 | 5.0 | 7.0 | 0.00 | 0.00 | 0.00 | 58 | 997.2 |
| 20260506212947 | 73 | 327 | 5.0 | 8.0 | 0.00 | 0.00 | 0.00 | 56 | 997.2 |
| 20260506212442 | 72 | 323 | 5.0 | 7.0 | 0.00 | 0.00 | 0.00 | 58 | 997.3 |
| 20260506211942 | 72 | 242 | 2.0 | 2.0 | 0.00 | 0.00 | 0.00 | 58 | 997.0 |
| 20260506211439 | 73 | 152 | 4.0 | 5.0 | 0.00 | 0.00 | 0.00 | 56 | 997.3 |
| 20260506210936 | 73 | 239 | 3.0 | 5.0 | 0.00 | 0.00 | 0.00 | 56 | 997.1 |
| 20260506210432 | 74 | 288 | 3.0 | 5.0 | 0.00 | 0.00 | 0.00 | 56 | 997.3 |
| 20260506205930 | 73 | 266 | 2.0 | 2.0 | 0.00 | 0.00 | 0.00 | 57 | 997.0 |
| 20260506205426 | 74 | 255 | 3.0 | 3.0 | 0.00 | 0.00 | 0.00 | 55 | 997.4 |
| 20260506204922 | 74 | 346 | 5.0 | 6.0 | 0.00 | 0.00 | 0.00 | 56 | 997.2 |
| 20260506204420 | 73 | 252 | 2.0 | 3.0 | 0.00 | 0.00 | 0.00 | 58 | 997.3 |
| 20260506203917 | 73 | 78 | 3.0 | 5.0 | 0.00 | 0.00 | 0.00 | 56 | 997.4 |
| 20260506203414 | 75 | 348 | 3.0 | 5.0 | 0.00 | 0.00 | 0.00 | 53 | 997.4 |
| 20260506202911 | 74 | 225 | 4.0 | 6.0 | 0.00 | 0.00 | 0.00 | 53 | 997.6 |
| 20260506202408 | 74 | 230 | 3.0 | 3.0 | 0.00 | 0.00 | 0.00 | 54 | 997.4 |
| 20260506201905 | 74 | 209 | 1.0 | 2.0 | 0.00 | 0.00 | 0.00 | 55 | 997.4 |
| 20260506201402 | 74 | 271 | 4.0 | 6.0 | 0.00 | 0.00 | 0.00 | 52 | 997.4 |
| 20260506200859 | 74 | 134 | 1.0 | 2.0 | 0.00 | 0.00 | 0.00 | 53 | 997.5 |
| 20260506200355 | 73 | 257 | 4.0 | 5.0 | 0.00 | 0.00 | 0.00 | 55 | 997.3 |
| 20260506195851 | 74 | 297 | 3.0 | 5.0 | 0.00 | 0.00 | 0.00 | 54 | 997.5 |
| 20260506195349 | 74 | 214 | 1.0 | 1.0 | 0.00 | 0.00 | 0.00 | 53 | 997.6 |
| 20260506194845 | 73 | 271 | 4.0 | 7.0 | 0.00 | 0.00 | 0.00 | 53 | 997.6 |
| 20260506194342 | 73 | 254 | 3.0 | 3.0 | 0.00 | 0.00 | 0.00 | 53 | 997.6 |
| 20260506193840 | 73 | 122 | 2.0 | 3.0 | 0.00 | 0.00 | 0.00 | 54 | 997.9 |
| 20260506193336 | 73 | 244 | 3.0 | 3.0 | 0.00 | 0.00 | 0.00 | 54 | 997.7 |
| 20260506192833 | 74 | 245 | 5.0 | 6.0 | 0.00 | 0.00 | 0.00 | 51 | 997.9 |
| 20260506192330 | 73 | 260 | 1.0 | 1.0 | 0.00 | 0.00 | 0.00 | 52 | 998.0 |
| 20260506191827 | 73 | 264 | 3.0 | 3.0 | 0.00 | 0.00 | 0.00 | 54 | 997.9 |
| 20260506191323 | 73 | 213 | 3.0 | 6.0 | 0.00 | 0.00 | 0.00 | 53 | 998.1 |
| 20260506190820 | 73 | 140 | 1.0 | 1.0 | 0.00 | 0.00 | 0.00 | 53 | 998.2 |
| 20260506190316 | 72 | 246 | 2.0 | 3.0 | 0.00 | 0.00 | 0.00 | 54 | 997.9 |
| 20260506185813 | 73 | 258 | 4.0 | 5.0 | 0.00 | 0.00 | 0.00 | 53 | 998.2 |
| 20260506185310 | 71 | 202 | 1.0 | 1.0 | 0.00 | 0.00 | 0.00 | 55 | 998.1 |
| 20260506184807 | 72 | 158 | 1.0 | 2.0 | 0.00 | 0.00 | 0.00 | 54 | 998.2 |
| 20260506184304 | 72 | 359 | 2.0 | 2.0 | 0.00 | 0.00 | 0.00 | 53 | 998.3 |
| 20260506183801 | 71 | 76 | 1.0 | 2.0 | 0.00 | 0.00 | 0.00 | 52 | 998.4 |
| 20260506183257 | 71 | 199 | 2.0 | 2.0 | 0.00 | 0.00 | 0.00 | 54 | 998.5 |
| 20260506182755 | 71 | 244 | 3.0 | 3.0 | 0.00 | 0.00 | 0.00 | 53 | 998.5 |
| 20260506182252 | 70 | 231 | 1.0 | 2.0 | 0.00 | 0.00 | 0.00 | 57 | 998.6 |
| 20260506181750 | 70 | 330 | 5.0 | 7.0 | 0.00 | 0.00 | 0.00 | 55 | 998.7 |
| 20260506181247 | 70 | 245 | 1.0 | 2.0 | 0.00 | 0.00 | 0.00 | 57 | 998.6 |
| 20260506180744 | 69 | 316 | 1.0 | 1.0 | 0.00 | 0.00 | 0.00 | 57 | 998.8 |
| 20260506180240 | 69 | 244 | 3.0 | 3.0 | 0.00 | 0.00 | 0.00 | 59 | 998.7 |
| 20260506175736 | 69 | 4 | 5.0 | 6.0 | 0.00 | 0.00 | 0.00 | 58 | 998.9 |
| 20260506175233 | 69 | 64 | 1.0 | 2.0 | 0.00 | 0.00 | 0.00 | 60 | 998.8 |
| 20260506174731 | 68 | 24 | 2.0 | 3.0 | 0.00 | 0.00 | 0.00 | 59 | 998.8 |
| 20260506174227 | 68 | 243 | 2.0 | 3.0 | 0.00 | 0.00 | 0.00 | 60 | 998.9 |
| 20260506173725 | 68 | 20 | 1.0 | 1.0 | 0.00 | 0.00 | 0.00 | 60 | 999.0 |
| 20260506173222 | 68 | 343 | 2.0 | 2.0 | 0.00 | 0.00 | 0.00 | 60 | 999.1 |
| 20260506172719 | 67 | 245 | 3.0 | 3.0 | 0.00 | 0.00 | 0.00 | 61 | 999.0 |
| 20260506172215 | 67 | 147 | 2.0 | 2.0 | 0.00 | 0.00 | 0.00 | 60 | 999.0 |
| 20260506171713 | 66 | 258 | 2.0 | 2.0 | 0.00 | 0.00 | 0.00 | 61 | 999.2 |
| 20260506171210 | 67 | 295 | 3.0 | 3.0 | 0.00 | 0.00 | 0.00 | 61 | 999.2 |
| 20260506170708 | 67 | 178 | 1.0 | 1.0 | 0.00 | 0.00 | 0.00 | 65 | 999.0 |
| 20260506170204 | 65 | 142 | 1.0 | 1.0 | 0.00 | 0.00 | 0.00 | 66 | 999.3 |
| 20260506165703 | 65 | 133 | 1.0 | 1.0 | 0.00 | 0.00 | 0.00 | 66 | 999.3 |
| 20260506165159 | 64 | 275 | 2.0 | 2.0 | 0.00 | 0.00 | 0.00 | 67 | 999.1 |
| 20260506164656 | 64 | 108 | 1.0 | 1.0 | 0.00 | 0.00 | 0.00 | 67 | 999.2 |
| 20260506164154 | 64 | 200 | 1.0 | 1.0 | 0.00 | 0.00 | 0.00 | 67 | 999.1 |
| 20260506163650 | 64 | 179 | 0.0 | 1.0 | 0.00 | 0.00 | 0.00 | 67 | 999.0 |
| 20260506163145 | 64 | 191 | 1.0 | 2.0 | 0.00 | 0.00 | 0.00 | 68 | 999.4 |
| 20260506162641 | 63 | 235 | 2.0 | 2.0 | 0.00 | 0.00 | 0.00 | 68 | 999.3 |
| 20260506162139 | 63 | 55 | 1.0 | 1.0 | 0.00 | 0.00 | 0.00 | 70 | 999.1 |
| 20260506161636 | 63 | 54 | 1.0 | 1.0 | 0.00 | 0.00 | 0.00 | 69 | 999.2 |
| 20260506161133 | 63 | 25 | 1.0 | 1.0 | 0.00 | 0.00 | 0.00 | 69 | 999.2 |
| 20260506160630 | 62 | 78 | 1.0 | 1.0 | 0.00 | 0.00 | 0.00 | 70 | 999.3 |
| 20260506160127 | 62 | 44 | 1.0 | 1.0 | 0.00 | 0.00 | 0.00 | 71 | 999.3 |
| 20260506155626 | 63 | 62 | 1.0 | 1.0 | 0.00 | 0.00 | 0.00 | 69 | 999.3 |
| 20260506155122 | 62 | 159 | 0.0 | 0.0 | 0.00 | 0.00 | 0.00 | 70 | 999.4 |
| 20260506153219 | 60 | 104 | 0.0 | 0.0 | 0.00 | 0.00 | 0.00 | 71 | 999.3 |
| 20260506152715 | 60 | 224 | 1.0 | 1.0 | 0.00 | 0.00 | 0.00 | 72 | 999.3 |
| 20260506152213 | 60 | 67 | 1.0 | 1.0 | 0.00 | 0.00 | 0.00 | 72 | 999.4 |
| 20260506151712 | 59 | 147 | 0.0 | 0.0 | 0.00 | 0.00 | 0.00 | 74 | 999.3 |
| 20260506151208 | 59 | 105 | 1.0 | 1.0 | 0.00 | 0.00 | 0.00 | 73 | 999.6 |
| 20260506150704 | 59 | 147 | 0.0 | 0.0 | 0.00 | 0.00 | 0.00 | 75 | 999.5 |
| 20260506150202 | 59 | 117 | 0.0 | 0.0 | 0.00 | 0.00 | 0.00 | 74 | 999.4 |
| 20260506145659 | 58 | 119 | 0.0 | 0.0 | 0.00 | 0.00 | 0.00 | 77 | 999.7 |
| 20260506145155 | 57 | 152 | 1.0 | 2.0 | 0.00 | 0.00 | 0.00 | 76 | 999.2 |
| 20260506144653 | 58 | 100 | 1.0 | 1.0 | 0.00 | 0.00 | 0.00 | 76 | 999.2 |
| 20260506144149 | 58 | 122 | 0.0 | 0.0 | 0.00 | 0.00 | 0.00 | 77 | 999.4 |
| 20260506143647 | 55 | 137 | 0.0 | 0.0 | 0.00 | 0.00 | 0.00 | 84 | 999.4 |
| 20260506143145 | 55 | 137 | 0.0 | 0.0 | 0.00 | 0.00 | 0.00 | 87 | 999.4 |
| 20260506142643 | 52 | 183 | 0.0 | 0.0 | 0.00 | 0.00 | 0.00 | 92 | 999.3 |
| 20260506142141 | 51 | 184 | 0.0 | 0.0 | 0.00 | 0.00 | 0.00 | 94 | 999.4 |
| 20260506141638 | 51 | 184 | 0.0 | 0.0 | 0.00 | 0.00 | 0.00 | 93 | 999.2 |
| 20260506141136 | 51 | 197 | 0.0 | 0.0 | 0.00 | 0.00 | 0.00 | 94 | 999.3 |
| 20260506140633 | 51 | 164 | 0.0 | 0.0 | 0.00 | 0.00 | 0.00 | 95 | 999.4 |
| 20260506140131 | 51 | 191 | 0.0 | 0.0 | 0.00 | 0.00 | 0.00 | 95 | 999.4 |
| 20260506135628 | 50 | 192 | 0.0 | 0.0 | 0.00 | 0.00 | 0.00 | 96 | 999.3 |
| 20260506135124 | 50 | 127 | 0.0 | 0.0 | 0.00 | 0.00 | 0.00 | 96 | 999.2 |
| 20260506134620 | 50 | 127 | 0.0 | 0.0 | 0.00 | 0.00 | 0.00 | 96 | 999.1 |
| 20260506134116 | 49 | 127 | 0.0 | 0.0 | 0.00 | 0.00 | 0.00 | 96 | 999.1 |
| 20260506133614 | 49 | 127 | 0.0 | 0.0 | 0.00 | 0.00 | 0.00 | 96 | 999.1 |
| 20260506133110 | 49 | 127 | 0.0 | 0.0 | 0.00 | 0.00 | 0.00 | 96 | 998.9 |
| 20260506132608 | 49 | 127 | 0.0 | 0.0 | 0.00 | 0.00 | 0.00 | 96 | 999.0 |
| 20260506132105 | 49 | 127 | 0.0 | 0.0 | 0.00 | 0.00 | 0.00 | 97 | 999.0 |
| 20260506131602 | 49 | 127 | 0.0 | 0.0 | 0.00 | 0.00 | 0.00 | 97 | 998.9 |
| 20260506131058 | 49 | 127 | 0.0 | 0.0 | 0.00 | 0.00 | 0.00 | 97 | 998.9 |
| 20260506130555 | 49 | 127 | 0.0 | 0.0 | 0.00 | 0.00 | 0.00 | 97 | 998.7 |
| 20260506130053 | 49 | 127 | 0.0 | 0.0 | 0.00 | 0.00 | 0.00 | 97 | 998.7 |
| 20260506125551 | 49 | 127 | 0.0 | 0.0 | 0.00 | 0.00 | 0.00 | 97 | 998.8 |
| 20260506125048 | 49 | 127 | 0.0 | 0.0 | 0.00 | 0.00 | 0.00 | 97 | 998.7 |
| 20260506124546 | 49 | 127 | 0.0 | 0.0 | 0.00 | 0.00 | 0.00 | 97 | 998.7 |
| 20260506124044 | 48 | 127 | 0.0 | 0.0 | 0.00 | 0.00 | 0.00 | 97 | 998.7 |
| 20260506123541 | 48 | 127 | 0.0 | 0.0 | 0.00 | 0.00 | 0.00 | 96 | 998.7 |
| 20260506123039 | 48 | 127 | 0.0 | 0.0 | 0.00 | 0.00 | 0.00 | 96 | 998.6 |
| 20260506122535 | 48 | 127 | 0.0 | 0.0 | 0.00 | 0.00 | 0.00 | 96 | 998.8 |
| 20260506122034 | 48 | 126 | 0.0 | 0.0 | 0.00 | 0.00 | 0.00 | 96 | 998.5 |
| 20260506121531 | 49 | 127 | 0.0 | 0.0 | 0.00 | 0.00 | 0.00 | 96 | 998.5 |
| 20260506121027 | 49 | 126 | 0.0 | 0.0 | 0.00 | 0.00 | 0.00 | 96 | 998.6 |
| 20260506120525 | 49 | 126 | 0.0 | 0.0 | 0.00 | 0.00 | 0.00 | 96 | 998.4 |
| 20260506120022 | 49 | 126 | 0.0 | 0.0 | 0.00 | 0.00 | 0.00 | 95 | 998.6 |
| 20260506115520 | 49 | 126 | 0.0 | 0.0 | 0.00 | 0.00 | 0.00 | 95 | 998.4 |
| 20260506115019 | 49 | 126 | 0.0 | 0.0 | 0.00 | 0.00 | 0.00 | 95 | 998.5 |
| 20260506114515 | 49 | 127 | 0.0 | 0.0 | 0.00 | 0.00 | 0.00 | 95 | 998.5 |
| 20260506114014 | 49 | 126 | 0.0 | 0.0 | 0.00 | 0.00 | 0.00 | 95 | 998.5 |
| 20260506113511 | 49 | 128 | 0.0 | 0.0 | 0.00 | 0.00 | 0.00 | 95 | 998.5 |
| 20260506113009 | 49 | 128 | 0.0 | 0.0 | 0.00 | 0.00 | 0.00 | 95 | 998.4 |
| 20260506112505 | 50 | 128 | 0.0 | 0.0 | 0.00 | 0.00 | 0.00 | 95 | 998.4 |
| 20260506112003 | 50 | 128 | 0.0 | 0.0 | 0.00 | 0.00 | 0.00 | 95 | 998.5 |
| 20260506111501 | 49 | 126 | 0.0 | 0.0 | 0.00 | 0.00 | 0.00 | 95 | 998.6 |
| 20260506110957 | 49 | 129 | 0.0 | 0.0 | 0.00 | 0.00 | 0.00 | 95 | 998.4 |
| 20260506110455 | 50 | 129 | 0.0 | 0.0 | 0.00 | 0.00 | 0.00 | 95 | 998.4 |
| 20260506105951 | 50 | 129 | 0.0 | 0.0 | 0.00 | 0.00 | 0.00 | 95 | 998.3 |
| 20260506105448 | 50 | 129 | 0.0 | 0.0 | 0.00 | 0.00 | 0.00 | 95 | 998.3 |
| 20260506104945 | 50 | 129 | 0.0 | 0.0 | 0.00 | 0.00 | 0.00 | 95 | 998.6 |
| 20260506104443 | 50 | 128 | 0.0 | 0.0 | 0.00 | 0.00 | 0.00 | 95 | 998.4 |
| 20260506103941 | 49 | 128 | 0.0 | 0.0 | 0.00 | 0.00 | 0.00 | 95 | 998.4 |
| 20260506103438 | 49 | 128 | 0.0 | 0.0 | 0.00 | 0.00 | 0.00 | 95 | 998.4 |
| 20260506102935 | 49 | 128 | 0.0 | 0.0 | 0.00 | 0.00 | 0.00 | 95 | 998.4 |
| 20260506102433 | 49 | 128 | 0.0 | 0.0 | 0.00 | 0.00 | 0.00 | 95 | 998.5 |
| 20260506101930 | 49 | 128 | 0.0 | 0.0 | 0.00 | 0.00 | 0.00 | 95 | 998.3 |
| 20260506101426 | 49 | 128 | 0.0 | 0.0 | 0.00 | 0.00 | 0.00 | 94 | 998.3 |
| 20260506100924 | 49 | 128 | 0.0 | 0.0 | 0.00 | 0.00 | 0.00 | 94 | 998.3 |
| 20260506100422 | 50 | 128 | 0.0 | 0.0 | 0.00 | 0.00 | 0.00 | 94 | 998.2 |
| 20260506095920 | 50 | 128 | 0.0 | 0.0 | 0.00 | 0.00 | 0.00 | 94 | 998.2 |